Flag for Greece Weather past 2 weeks in Peristeri, Greece

Now
75 °F

Passing clouds.


Feels Like: 78 °F
Forecast: 65 / 87 °F
Wind: 7 mph from Northwest

Location: Elefsis Airport

Current Time: Jul 4, 2015 at 9:01:33 AM

Latest Report: Jul 4, 2015 at 7:50 AM


Visibility: N/A

Pressure: 30.12 "Hg

Humidity: 47%

Dew point: 54 °F

Location of PeristeriLocation

Historic Weather in Peristeri — Graph

°F

Peristeri temperature yesterday

Maximum temperature yesterday: 88 °F (at 12:20 PM)
Minimum temperature yesterday: 70 °F (at 6:20 AM)
Average temperature yesterday: 81 °F

Past Weeks' High & Low Weather Summary

 TemperatureHumidityPressure
High90 °F (Jun 25, 1:50 PM)94% (Jun 22, 7:50 AM)30.12 "Hg (Jun 22, 7:50 AM)
Low63 °F (Jun 20, 4:20 AM)23% (Jun 23, 3:20 PM)29.77 "Hg (Jun 19, 7:20 AM)
Average75 °F51%29.93 "Hg
* Reported Jun 19 7:20 AM — Jul 4 7:50 AM, Peristeri, Weather by CustomWeather, © 2015

Note: Actual official high and low records may vary slightly from our data, if they occured in-between our weather recording intervals... More about our weather records

Advertising

Peristeri weather history for previous 24 hours

 ConditionsComfort  
Time TempWeatherWind HumidityBarometerVisibility
7:50 AM
Sat, Jul 4
75 °FPassing clouds.7 mph47%30.12 "HgN/A
7:20 AM72 °FPassing clouds.5 mph53%30.12 "HgN/A
6:50 AM70 °FPassing clouds.6 mph57%30.12 "HgN/A
6:20 AM70 °FPassing clouds.5 mph57%30.09 "HgN/A
5:50 AM70 °FClear.9 mph57%30.12 "Hg10 mi
5:20 AM70 °FClear.6 mph57%30.12 "Hg10 mi
4:50 AM70 °FClear.6 mph57%30.12 "Hg10 mi
4:20 AM73 °FClear.9 mph47%30.12 "Hg10 mi
3:50 AM73 °FClear.9 mph47%30.12 "Hg10 mi
3:20 AM73 °FClear.9 mph47%30.12 "Hg10 mi
2:50 AM73 °FClear.9 mph47%30.12 "Hg10 mi
2:20 AM73 °FClear.7 mph47%30.12 "Hg10 mi
1:50 AM73 °FClear.7 mph47%30.12 "Hg10 mi
1:20 AM73 °FClear.7 mph41%30.12 "Hg10 mi
12:50 AM73 °FClear.7 mph41%30.12 "Hg10 mi
12:20 AM75 °FClear.5 mph39%30.12 "Hg10 mi
11:50 PM
Fri, Jul 3
77 °FClear.12 mph34%30.12 "Hg10 mi
11:20 PM75 °FClear.10 mph39%30.12 "Hg10 mi
10:50 PM77 °FClear.No wind34%30.12 "Hg10 mi
10:20 PM77 °FClear.5 mph34%30.12 "Hg10 mi
9:50 PM77 °FSunny.5 mph34%30.12 "Hg10 mi
9:20 PM79 °FSunny.5 mph32%30.09 "Hg10 mi
8:50 PM81 °FSunny.5 mph30%30.09 "Hg10 mi
8:20 PM81 °FSunny.5 mph32%30.09 "Hg10 mi
7:50 PM82 °FPassing clouds.14 mph32%30.09 "HgN/A
7:20 PM84 °FPassing clouds.12 mph31%30.09 "HgN/A
6:50 PM86 °FPassing clouds.16 mph29%30.09 "HgN/A
6:20 PM86 °FPassing clouds.14 mph29%30.09 "HgN/A
5:50 PM88 °FPassing clouds.14 mph27%30.09 "HgN/A
5:20 PM88 °FPassing clouds.14 mph27%30.09 "HgN/A
4:50 PM88 °FPassing clouds.14 mph27%30.09 "HgN/A
4:20 PM88 °FPassing clouds.14 mph29%30.09 "HgN/A
3:50 PM88 °FPassing clouds.14 mph29%30.09 "HgN/A
3:20 PM88 °FPassing clouds.14 mph29%30.09 "HgN/A
2:50 PM88 °FPassing clouds.16 mph29%30.09 "HgN/A
2:20 PM88 °FPassing clouds.14 mph29%30.09 "HgN/A
1:50 PM88 °FPassing clouds.16 mph29%30.09 "HgN/A
1:20 PM88 °FPassing clouds.16 mph31%30.09 "HgN/A
12:50 PM88 °FPassing clouds.16 mph31%30.09 "HgN/A
12:20 PM88 °FPassing clouds.16 mph31%30.09 "HgN/A
11:50 AM86 °FPassing clouds.14 mph33%30.09 "HgN/A
11:20 AM86 °FSunny.14 mph31%30.09 "Hg10 mi
10:50 AM86 °FSunny.14 mph31%30.09 "Hg10 mi
10:20 AM84 °FSunny.12 mph33%30.09 "Hg10 mi
9:50 AM84 °FSunny.12 mph31%30.09 "Hg10 mi
9:20 AM82 °FSunny.12 mph32%30.09 "Hg10 mi
Weather by CustomWeather, © 2015

See weather overviewHow to use our weather pages